Weather History for Cheyenne, WY

Change the Weather History Date:

Thursday, March 21, 2013

  Actual Average Record
Temperature  
Mean Temperature 36 °F 37 °F  
Max Temperature 45 °F 49 °F 72 °F (1995)
Min Temperature 26 °F 26 °F -8 °F (1913)
Degree Days  
Heating Degree Days 29 28  
Month to date heating degree days 601 632  
Since 1 July heating degree days 5534 5651  
Cooling Degree Days 0 0  
Month to date cooling degree days 0 0  
Year to date cooling degree days 0 0  
Moisture  
Dew Point 22 °F    
Average Humidity 42    
Maximum Humidity 58    
Minimum Humidity 25    
Precipitation  
Precipitation 0.04 in 0.04 in 0.71 in (1884)
Month to date precipitation 0.35 0.66  
Year to date precipitation 1.23 1.46  
Snow  
Snow 0.40 in 0.40 in 7.10 in (1884)
Month to date snowfall 4.6 7.4  
Since 1 July snowfall 43.0 43.9  
Snow Depth 0.00 in    
Sea Level Pressure  
Sea Level Pressure 29.61 in    
Wind  
Wind Speed 17 mph (West)    
Max Wind Speed 35 mph    
Max Gust Speed 43 mph    
Visibility 8 miles    
Events Rain , Snow , Thunderstorm    
T = Trace of Precipitation, MM = Missing Value Source: NWS Daily Summary

Daily Weather History Graph

Daily Weather History Graph

Search for Another Location

Airport:

Trip Planner

Search our weather history database for the weather conditions in past years. The results will help you decide how hot, cold, wet, or windy it might be!

Date:

Astronomy

Mar. 21, 2013 Rise Set
Actual Time 7:00 AM MDT 7:12 PM MDT
Civil Twilight 6:32 AM MDT 7:40 PM MDT
Nautical Twilight 6:00 AM MDT 8:12 PM MDT
Astronomical Twilight 5:27 AM MDT 8:45 PM MDT
Moon 1:42 PM MDT (3/21) 3:26 AM MDT (3/21)
Length of Visible Light 13h 07m
Length of Day
12h 12m
Waxing Gibbous, 69% of the Moon is Illuminated
Mar 21
Waxing Gibbous
Mar 27
Full
Apr 2
Last Quarter
Apr 10
New
Apr 18
First Quarter

Hourly Weather History & Observations

Time (MDT) Temp. Windchill Dew Point Humidity Pressure Visibility Wind Dir Wind Speed Gust Speed Precip Events Conditions
12:53 AM 41.0 °F 38.0 °F 23.0 °F 49% 29.67 in 10.0 mi WSW 4.6 mph - N/A   Clear
1:53 AM 42.1 °F 34.5 °F 23.0 °F 47% 29.65 in 10.0 mi West 15.0 mph - N/A   Clear
2:53 AM 39.9 °F 31.8 °F 23.0 °F 51% 29.60 in 10.0 mi SW 15.0 mph 20.7 mph N/A   Clear
3:53 AM 41.0 °F 30.5 °F 24.1 °F 51% 29.53 in 10.0 mi West 26.5 mph 36.8 mph N/A   Clear
4:53 AM 41.0 °F 31.1 °F 24.1 °F 51% 29.53 in 10.0 mi West 23.0 mph 29.9 mph N/A   Clear
5:53 AM 42.1 °F 32.3 °F 23.0 °F 47% 29.52 in 10.0 mi West 24.2 mph 35.7 mph N/A   Clear
6:53 AM 43.0 °F 34.8 °F 21.9 °F 43% 29.52 in 10.0 mi WSW 18.4 mph 24.2 mph N/A   Clear
7:53 AM 41.0 °F 34.7 °F 23.0 °F 49% 29.54 in 10.0 mi West 10.4 mph 19.6 mph N/A   Clear
8:53 AM 43.0 °F 37.7 °F 24.1 °F 47% 29.50 in 10.0 mi WSW 9.2 mph - N/A   Overcast
9:53 AM 44.1 °F 39.0 °F 24.1 °F 45% 29.49 in 10.0 mi WSW 9.2 mph - N/A   Overcast
10:53 AM 45.0 °F 38.5 °F 24.1 °F 44% 29.48 in 10.0 mi SSE 13.8 mph 18.4 mph N/A   Overcast
11:21 AM 44.6 °F 38.4 °F 24.8 °F 46% 29.57 in 10.0 mi SE 12.7 mph - N/A Thunderstorm Overcast
11:30 AM 42.8 °F 38.0 °F 26.6 °F 53% 29.58 in 2.5 mi SSE 8.1 mph - N/A Thunderstorm Thunderstorm
11:37 AM 42.8 °F 38.0 °F 26.6 °F 53% 29.60 in 10.0 mi SSW 8.1 mph - N/A Thunderstorm Thunderstorm
11:46 AM 39.2 °F 29.8 °F 28.4 °F 65% 29.61 in 2.0 mi West 18.4 mph 28.8 mph 0.00 in Rain Light Rain
11:53 AM 36.0 °F 26.0 °F 30.0 °F 79% 29.57 in 2.0 mi West 17.3 mph 28.8 mph 0.00 in Rain Rain
12:03 PM 33.8 °F 25.8 °F 30.2 °F 87% 29.63 in 2.0 mi WSW 10.4 mph - 0.02 in Snow Light Snow
12:10 PM 33.8 °F 24.3 °F 30.2 °F 87% 29.62 in 3.0 mi SW 13.8 mph - 0.03 in Snow Light Snow
12:21 PM 35.6 °F 27.5 °F 32.0 °F 87% 29.63 in 7.0 mi WSW 11.5 mph - 0.03 in Snow Light Snow
12:43 PM 35.6 °F 27.1 °F 30.2 °F 81% 29.63 in 2.0 mi West 12.7 mph 26.5 mph 0.04 in Snow Light Snow
12:53 PM 35.1 °F 27.9 °F 30.9 °F 85% 29.60 in 3.0 mi WSW 9.2 mph - 0.04 in Snow Light Snow
1:12 PM 37.4 °F 31.4 °F 33.8 °F 87% 29.61 in 10.0 mi SSW 8.1 mph - 0.01 in   Overcast
1:53 PM 43.0 °F 36.4 °F 30.0 °F 60% 29.52 in 10.0 mi NW 12.7 mph 19.6 mph 0.01 in   Overcast
2:53 PM 42.1 °F 33.3 °F 25.0 °F 51% 29.53 in 10.0 mi West 19.6 mph 26.5 mph N/A   Mostly Cloudy
3:53 PM 43.0 °F 34.8 °F 17.1 °F 35% 29.54 in 10.0 mi West 18.4 mph 31.1 mph N/A   Overcast
4:53 PM 39.9 °F 30.0 °F 17.1 °F 40% 29.57 in 10.0 mi NW 21.9 mph 31.1 mph N/A   Partly Cloudy
5:53 PM 39.9 °F 28.0 °F 6.1 °F 25% 29.62 in 10.0 mi WNW 32.2 mph 42.6 mph N/A   Clear
6:53 PM 36.0 °F 24.7 °F 9.0 °F 33% 29.68 in 10.0 mi West 21.9 mph 31.1 mph N/A   Clear
7:53 PM 34.0 °F 22.4 °F 10.9 °F 38% 29.73 in 10.0 mi WNW 20.7 mph 36.8 mph N/A   Scattered Clouds
8:53 PM 30.9 °F 19.4 °F 16.0 °F 54% 29.77 in 10.0 mi NW 17.3 mph 24.2 mph N/A   Clear
9:53 PM 30.0 °F 19.1 °F 15.1 °F 54% 29.80 in 10.0 mi NW 15.0 mph 24.2 mph N/A   Clear
10:53 PM 28.9 °F 17.7 °F 15.1 °F 56% 29.81 in 10.0 mi WNW 15.0 mph 21.9 mph N/A   Clear
11:53 PM 27.0 °F 17.3 °F 12.9 °F 56% 29.87 in 10.0 mi WNW 10.4 mph - N/A   Clear